Location: Cerroniocc
(13.7547°S, 72.0222°W)
Time: 19:38:37
(UTC+00:00)

Cosmos 2360 Rocket - Pass Details

Date: 05 July 2020
Orbit: 832 x 846 km, 71.0° (Epoch: 11 August)

Event Time Altitude Azimuth Distance (km) Brightness Sun altitude
Rises 23:36:18 0° 189° (S) 3,389 5.2 -15.1°
Reaches altitude 10° 23:38:49 10° 184° (S) 2,451 4.4 -15.7°
Maximum altitude 23:44:17 53° 107° (ESE) 1,019 2.2 -16.9°
Drops below altitude 10° 23:49:43 10° 31° (NNE) 2,436 4.5 -18.2°
Sets 23:52:12 0° 26° (NNE) 3,367 5.3 -18.7°
